Tracking 31027 objects as of 19-Jul-2025
HD Live streaming from Space Station
objects crossing your sky now

ONEWEB-0456

Track ONEWEB-0456 now!
10-day predictions
ONEWEB-0456 is classified as:


NORAD ID: 51646
Int'l Code: 2022-012AA
Perigee: 1,227.3 km
Apogee: 1,230.5 km
Inclination: 87.9 °
Period: 109.9 minutes
Semi major axis: 7599 km
RCS: Unknown
Launch date: February 10, 2022
Source: United Kingdom (UK)
Launch site: FRENCH GUIANA (FRGUI)
Your satellite tracking list
SL-12 R/B(2)
Track 1 satellite(s)




NASA's NSSDC Master Catalog

Two Line Element Set (TLE):
1 51646U 22012AA  25199.43198588  .00000106  00000-0  26815-3 0  9993
2 51646  87.8806 102.7873 0002094  76.4465 283.6895 13.10369682165637
Source of the keplerian elements: AFSPC